Time,TemperatureF,DewpointF,PressureIn,WindDirection,WindDirectionDegrees,WindSpeedMPH,WindSpeedGustMPH,Humidity,HourlyPrecipIn,Conditions,Clouds,dailyrainin,SoftwareType,DateUTC
2013-12-04 00:12:00,37.0,35.0,29.96,South,182,3.0,-999.0,93,-99.99,,,-99.99,,2013-12-04 05:12:00,
2013-12-04 00:23:00,38.0,36.0,29.96,South,184,5.0,-999.0,91,-99.99,,,-99.99,,2013-12-04 05:23:00,
2013-12-04 00:42:00,38.0,34.0,29.95,SSW,205,6.0,-999.0,87,-99.99,,,-99.99,,2013-12-04 05:42:00,
2013-12-04 00:53:00,38.0,34.0,29.95,SSE,159,5.0,-999.0,86,-99.99,,,-99.99,,2013-12-04 05:53:00,
2013-12-04 01:22:00,38.0,34.0,29.96,SSE,163,5.0,-999.0,84,-99.99,,,-99.99,,2013-12-04 06:22:00,
2013-12-04 01:42:00,38.0,33.0,29.97,SSW,209,7.0,-999.0,83,-99.99,,,-99.99,,2013-12-04 06:42:00,
2013-12-04 01:52:00,38.0,33.0,29.97,South,188,8.0,-999.0,82,-99.99,,,-99.99,,2013-12-04 06:52:00,
2013-12-04 02:22:00,39.0,34.0,29.98,South,178,7.0,-999.0,81,-99.99,,,-99.99,,2013-12-04 07:22:00,
2013-12-04 02:42:00,39.0,33.0,29.98,SSW,205,9.0,-999.0,80,-99.99,,,-99.99,,2013-12-04 07:42:00,
2013-12-04 02:52:00,39.0,33.0,29.98,SSW,211,7.0,-999.0,80,-99.99,,,-99.99,,2013-12-04 07:52:00,
2013-12-04 03:11:00,40.0,34.0,29.98,SW,216,7.0,-999.0,79,-99.99,,,-99.99,,2013-12-04 08:11:00,
2013-12-04 03:22:00,39.0,33.0,29.98,SW,221,8.0,-999.0,79,-99.99,,,-99.99,,2013-12-04 08:22:00,
2013-12-04 03:42:00,39.0,33.0,29.98,SW,233,6.0,-999.0,79,-99.99,,,-99.99,,2013-12-04 08:42:00,
2013-12-04 03:52:00,39.0,33.0,29.98,SW,227,7.0,-999.0,79,-99.99,,,-99.99,,2013-12-04 08:52:00,
2013-12-04 04:22:00,40.0,34.0,29.97,SW,220,6.0,-999.0,79,-99.99,,,-99.99,,2013-12-04 09:22:00,
2013-12-04 04:53:00,40.0,34.0,29.96,SW,219,6.0,-999.0,78,-99.99,,,-99.99,,2013-12-04 09:53:00,
2013-12-04 05:12:00,40.0,34.0,29.96,SW,236,6.0,-999.0,78,-99.99,,,-99.99,,2013-12-04 10:12:00,
2013-12-04 05:23:00,40.0,34.0,29.96,SW,223,5.0,-999.0,78,-99.99,,,-99.99,,2013-12-04 10:23:00,
2013-12-04 05:42:00,40.0,34.0,29.97,SW,230,6.0,-999.0,78,-99.99,,,-99.99,,2013-12-04 10:42:00,
2013-12-04 05:53:00,40.0,34.0,29.97,SW,215,5.0,-999.0,78,-99.99,,,-99.99,,2013-12-04 10:53:00,
2013-12-04 06:22:00,40.0,34.0,29.98,SW,218,7.0,-999.0,78,-99.99,,,-99.99,,2013-12-04 11:22:00,
2013-12-04 06:42:00,40.0,34.0,29.98,SW,215,7.0,-999.0,78,-99.99,,,-99.99,,2013-12-04 11:42:00,
2013-12-04 06:53:00,40.0,34.0,29.99,SW,221,7.0,-999.0,78,-99.99,,,-99.99,,2013-12-04 11:53:00,
2013-12-04 07:22:00,39.0,33.0,30.01,SW,231,6.0,-999.0,78,-99.99,,,-99.99,,2013-12-04 12:22:00,
2013-12-04 07:42:00,40.0,34.0,30.01,SW,216,7.0,-999.0,78,-99.99,,,-99.99,,2013-12-04 12:42:00,
2013-12-04 07:52:00,40.0,34.0,30.01,SW,219,6.0,-999.0,78,-99.99,,,-99.99,,2013-12-04 12:52:00,
2013-12-04 08:22:00,41.0,34.0,30.01,WSW,238,4.0,-999.0,77,-99.99,,,-99.99,,2013-12-04 13:22:00,
2013-12-04 08:42:00,41.0,34.0,30.01,WSW,246,5.0,-999.0,77,-99.99,,,-99.99,,2013-12-04 13:42:00,
2013-12-04 08:52:00,42.0,35.0,30.02,SW,227,5.0,-999.0,77,-99.99,,,-99.99,,2013-12-04 13:52:00,
2013-12-04 09:12:00,42.0,35.0,30.02,SW,234,5.0,-999.0,77,-99.99,,,-99.99,,2013-12-04 14:12:00,
2013-12-04 09:22:00,42.0,35.0,30.02,SW,227,6.0,-999.0,77,-99.99,,,-99.99,,2013-12-04 14:22:00,
2013-12-04 09:42:00,43.0,36.0,30.02,SW,221,7.0,-999.0,77,-99.99,,,-99.99,,2013-12-04 14:42:00,
2013-12-04 09:52:00,44.0,37.0,30.02,SW,234,6.0,-999.0,76,-99.99,,,-99.99,,2013-12-04 14:52:00,
2013-12-04 10:12:00,45.0,39.0,30.02,SSW,209,7.0,-999.0,78,-99.99,,,-99.99,,2013-12-04 15:12:00,
2013-12-04 10:22:00,46.0,44.0,30.03,SW,218,7.0,-999.0,93,-99.99,,,-99.99,,2013-12-04 15:22:00,
2013-12-04 10:43:00,46.0,44.0,30.03,WSW,245,8.0,-999.0,93,-99.99,,,-99.99,,2013-12-04 15:43:00,
2013-12-04 10:54:00,47.0,44.0,30.03,SW,214,7.0,-999.0,90,-99.99,,,-99.99,,2013-12-04 15:54:00,
2013-12-04 11:23:00,47.0,43.0,30.02,SW,236,8.0,-999.0,87,-99.99,,,-99.99,,2013-12-04 16:23:00,
2013-12-04 11:43:00,48.0,44.0,30.02,SW,234,9.0,-999.0,87,-99.99,,,-99.99,,2013-12-04 16:43:00,
2013-12-04 11:53:00,48.0,44.0,30.01,South,190,7.0,-999.0,86,-99.99,,,-99.99,,2013-12-04 16:53:00,
2013-12-04 12:22:00,48.0,44.0,30.00,SW,227,6.0,-999.0,87,-99.99,,,-99.99,,2013-12-04 17:22:00,
2013-12-04 12:53:00,47.0,44.0,29.99,South,185,5.0,-999.0,89,-99.99,,,-99.99,,2013-12-04 17:53:00,
2013-12-04 13:22:00,48.0,44.0,29.98,SSW,213,6.0,-999.0,87,-99.99,,,-99.99,,2013-12-04 18:22:00,
2013-12-04 13:33:00,48.0,44.0,29.98,SSW,213,6.0,-999.0,87,-99.99,,,-99.99,,2013-12-04 18:33:00,
2013-12-04 13:42:00,48.0,44.0,29.98,SSW,213,6.0,-999.0,87,-99.99,,,-99.99,,2013-12-04 18:42:00,
2013-12-04 13:52:00,48.0,44.0,29.96,SW,223,6.0,-999.0,87,-99.99,,,-99.99,,2013-12-04 18:52:00,
2013-12-04 14:12:00,50.0,45.0,29.96,South,191,4.0,-999.0,84,-99.99,,,-99.99,,2013-12-04 19:12:00,
2013-12-04 14:22:00,51.0,46.0,29.96,SE,141,2.0,-999.0,83,-99.99,,,-99.99,,2013-12-04 19:22:00,
2013-12-04 14:52:00,50.0,45.0,29.96,South,173,5.0,-999.0,82,-99.99,,,-99.99,,2013-12-04 19:52:00,
2013-12-04 15:12:00,49.0,45.0,29.95,SSW,196,6.0,-999.0,85,-99.99,,,-99.99,,2013-12-04 20:12:00,
2013-12-04 15:22:00,49.0,45.0,29.96,South,180,6.0,-999.0,86,-99.99,,,-99.99,,2013-12-04 20:22:00,
2013-12-04 15:42:00,50.0,45.0,29.96,SW,216,7.0,-999.0,84,-99.99,,,-99.99,,2013-12-04 20:42:00,
2013-12-04 15:52:00,49.0,45.0,29.96,SW,233,9.0,-999.0,85,-99.99,,,-99.99,,2013-12-04 20:52:00,
2013-12-04 16:22:00,46.0,44.0,29.96,SSW,205,8.0,-999.0,91,-99.99,,,-99.99,,2013-12-04 21:22:00,
2013-12-04 16:44:00,46.0,44.0,29.96,South,171,6.0,-999.0,91,-99.99,,,-99.99,,2013-12-04 21:44:00,
2013-12-04 16:54:00,46.0,44.0,29.96,SSW,193,5.0,-999.0,91,-99.99,,,-99.99,,2013-12-04 21:54:00,
2013-12-04 17:23:00,45.0,43.0,29.97,SSE,150,3.0,-999.0,92,-99.99,,,-99.99,,2013-12-04 22:23:00,
2013-12-04 17:43:00,45.0,43.0,29.97,South,171,4.0,-999.0,93,-99.99,,,-99.99,,2013-12-04 22:43:00,
2013-12-04 17:53:00,45.0,43.0,29.97,SSE,158,6.0,-999.0,94,-99.99,,,-99.99,,2013-12-04 22:53:00,
2013-12-04 18:12:00,45.0,43.0,29.97,SSE,167,6.0,-999.0,94,-99.99,,,-99.99,,2013-12-04 23:12:00,
2013-12-04 18:22:00,45.0,43.0,29.97,SSE,159,4.0,-999.0,93,-99.99,,,-99.99,,2013-12-04 23:22:00,
2013-12-04 18:53:00,45.0,43.0,29.97,South,172,7.0,-999.0,94,-99.99,,,-99.99,,2013-12-04 23:53:00,
2013-12-04 19:11:00,45.0,43.0,29.98,SSE,165,5.0,-999.0,94,-99.99,,,-99.99,,2013-12-05 00:11:00,
2013-12-04 19:22:00,45.0,43.0,29.97,SSW,208,7.0,-999.0,94,-99.99,,,-99.99,,2013-12-05 00:22:00,
2013-12-04 19:42:00,45.0,43.0,29.98,WSW,248,6.0,-999.0,94,-99.99,,,-99.99,,2013-12-05 00:42:00,
2013-12-04 19:52:00,45.0,43.0,29.99,South,182,8.0,-999.0,94,-99.99,,,-99.99,,2013-12-05 00:52:00,
2013-12-04 20:22:00,44.0,42.0,29.99,SSW,192,8.0,-999.0,94,-99.99,,,-99.99,,2013-12-05 01:22:00,
2013-12-04 20:42:00,44.0,42.0,29.99,South,173,8.0,-999.0,92,-99.99,,,-99.99,,2013-12-05 01:42:00,
2013-12-04 20:52:00,44.0,42.0,29.98,SSE,159,8.0,-999.0,91,-99.99,,,-99.99,,2013-12-05 01:52:00,
2013-12-04 21:22:00,44.0,40.0,29.98,SSW,196,7.0,-999.0,87,-99.99,,,-99.99,,2013-12-05 02:22:00,
2013-12-04 22:12:00,44.0,39.0,29.99,South,190,7.0,-999.0,84,-99.99,,,-99.99,,2013-12-05 03:12:00,
2013-12-04 22:22:00,44.0,39.0,29.99,South,188,7.0,-999.0,83,-99.99,,,-99.99,,2013-12-05 03:22:00,
2013-12-04 22:54:00,44.0,39.0,30.00,SE,144,8.0,-999.0,81,-99.99,,,-99.99,,2013-12-05 03:54:00,
2013-12-04 23:23:00,44.0,38.0,30.01,SSW,211,8.0,-999.0,80,-99.99,,,-99.99,,2013-12-05 04:23:00,
2013-12-04 23:53:00,44.0,38.0,30.01,SSW,204,9.0,-999.0,79,-99.99,,,-99.99,,2013-12-05 04:53:00,